This demonstration page uses our WeatherBlox Daily Observations layout. Learn more.

Left ArrowRight Arrow

36.19886, -115.1175

Hourly Observations for December 11, 2015

Temp ( °F °C ) Dew Point ( °F °C ) Humidity (%) Winds ( mph kmh ) Pressure ( in mb ) Visibility ( mi km ) Precip ( " mm )
12:53 am 00:53 Clear 61 16.1 38 3.3 43 43 SW 14 22 29.66 1004 10 16 0.00 0.00
1:53 am 01:53 Mostly Clear 59 15 36 2.2 42 42 WSW 10 17 29.65 1004 10 16 0.00 0.00
2:53 am 02:53 Clear 59 15 34 1.1 39 39 S 10 17 29.66 1004 10 16 0.00 0.00
3:53 am 03:53 Clear 57 13.9 31 -0.6 37 37 SW 14 22 29.66 1004 10 16 0.00 0.00
4:53 am 04:53 Clear 56 13.3 30 -1.1 37 37 WSW 20 31 29.62 1003 10 16 0.00 0.00
5:53 am 05:53 Clear 54 12.2 29 -1.7 38 38 WSW 14 22 29.62 1003 10 16 0.00 0.00
6:53 am 06:53 Sunny 50 10 29 -1.7 44 44 W 7 11 29.62 1003 10 16 0.00 0.00
7:53 am 07:53 Sunny 50 10 31 -0.6 48 48 WNW 10 17 29.65 1004 10 16 0.00 0.00
8:53 am 08:53 Mostly Cloudy 54 12.2 30 -1.1 40 40 NNW 9 15 29.65 1004 10 16 0.00 0.00
9:53 am 09:53 Sunny 55 12.8 29 -1.7 37 37 Calm 29.67 1005 10 16 0.00 0.00
10:53 am 10:53 Sunny 60 15.6 28 -2.2 30 30 Calm 29.62 1003 10 16 0.00 0.00
11:53 am 11:53 Sunny 60 15.6 30 -1.1 32 32 NNE 6 9 29.61 1003 10 16 0.00 0.00
12:53 pm 12:53 Cloudy 57 13.9 34 1.1 42 42 NNW 20 31 29.60 1003 10 16 0.00 0.00
1:53 pm 13:53 Cloudy 55 12.8 35 1.7 47 47 NNW 21 33 29.63 1003 10 16 0.00 0.03
2:53 pm 14:53 Cloudy 54 12.2 34 1.1 47 47 NNW 21 33 29.64 1004 10 16 0.00 0.00
3:53 pm 15:53 Cloudy with Light Rain 52 11.1 35 1.7 53 53 N 17 28 29.66 1005 10 16 0.00 0.03
4:53 pm 16:53 Cloudy 51 10.6 34 1.1 52 52 NNW 13 20 29.70 1006 10 16 0.00 0.03
5:53 pm 17:53 Cloudy 50 10 33 0.6 52 52 N 21 33 29.72 1007 10 16 0.00 0.00
6:53 pm 18:53 Mostly Clear 49 9.4 32 0 52 52 N 6 9 29.76 1008 10 16 0.00 0.00
7:53 pm 19:53 Mostly Cloudy 49 9.4 33 0.6 55 55 N 12 19 29.78 1008 10 16 0.00 0.00
8:53 pm 20:53 Mostly Clear 47 8.3 37 2.8 69 69 SSE 3 6 29.78 1009 10 16 0.00 0.00
9:53 pm 21:53 Mostly Cloudy 46 7.8 36 2.2 68 68 VRB 5 7 29.80 1009 10 16 0.00 0.00
10:53 pm 22:53 Cloudy 49 9.4 33 0.6 55 55 NNW 15 24 29.78 1009 10 16 0.00 0.00
11:53 pm 23:53 Mostly Cloudy 49 9.4 31 -0.6 50 50 N 14 22 29.78 1009 10 16 0.00 0.00

Powered by AerisWeather